Wind_Speed
18 16 16 16 15 15 17 18 19 20 20 21 22 22 23 23 24 25 25 25 25 25 23 22 20 19 18 18 18 18 19 19 19 19 20 21 22 23 25 26 28 29 30 31 32 32 33 34 35 36 36 36 38 39 39 39 37 37 37 35 32 30 28 25 15 8 14 22 26 30 33 34 35 37 38 38 37 37 35 34 35 37 38 37 34
15 15 14 14 13 12 13 15 16 18 18 19 20 21 21 21 21 23 23 23 23 24 24 23 23 22 21 20 19 18 18 18 19 19 20 22 23 24 25 26 27 28 29 30 31 31 32 34 34 34 34 36 38 39 39 39 38 38 38 37 36 34 31 28 21 12 11 17 22 26 31 34 36 37 39 40 39 39 38 36 37 38 39 38 35
15 14 13 13 13 12 13 14 14 16 16 17 18 19 20 20 21 21 22 22 22 22 22 22 23 23 23 23 21 20 19 17 17 18 19 21 22 24 25 26 27 28 28 29 30 30 31 33 33 32 32 34 37 37 37 37 36 37 38 38 38 38 36 33 28 20 15 17 22 27 31 35 37 38 39 40 40 39 39 39 39 39 39 38 36
17 17 16 15 15 14 14 15 15 16 16 16 16 18 19 20 20 21 22 23 23 24 24 23 23 23 23 23 22 21 21 19 18 17 18 20 22 23 24 25 27 28 29 29 29 30 31 32 32 31 31 33 36 36 35 35 35 35 37 37 38 38 37 36 34 29 21 19 24 30 34 37 38 38 39 39 38 39 39 39 39 39 39 38 37
18 20 19 19 19 18 17 18 19 20 19 19 18 20 21 21 21 23 24 25 25 25 25 25 25 25 24 23 23 22 21 20 20 19 18 18 20 22 24 25 27 28 28 29 30 30 31 32 32 30 30 33 34 33 32 33 34 35 36 36 37 36 35 35 36 34 27 23 25 29 32 35 35 36 39 39 37 36 37 37 38 38 38 37 36
18 20 20 20 20 20 21 22 23 24 24 23 22 24 26 25 24 25 26 27 27 28 27 26 26 26 26 26 25 24 22 20 20 20 19 18 19 20 22 24 26 27 28 29 29 30 31 32 32 31 31 34 34 32 31 32 33 34 36 35 34 33 32 34 35 33 31 27 26 28 31 33 33 32 37 41 39 37 36 35 36 37 38 37 36
19 21 21 21 22 22 23 25 26 27 27 26 26 28 28 28 28 28 27 27 28 29 29 28 27 27 27 27 27 26 25 23 22 21 20 20 19 20 21 23 25 27 28 28 29 30 31 32 32 31 32 34 35 33 31 32 33 34 36 35 33 32 32 33 32 32 31 28 25 28 31 33 33 32 36 39 37 36 36 32 30 34 36 37 38
19 21 22 23 24 24 25 26 28 30 30 30 31 32 31 31 31 31 30 29 30 30 30 29 29 29 28 28 28 27 26 26 26 25 23 22 21 22 22 23 25 26 27 28 29 29 30 31 31 32 33 34 35 34 33 32 32 34 35 34 32 32 32 32 30 30 31 28 25 27 29 30 31 29 31 34 32 31 34 34 33 35 37 37 39
18 20 22 23 24 25 26 27 29 30 31 33 34 35 36 36 35 34 33 32 32 32 32 31 31 30 30 30 29 28 27 28 28 27 25 24 23 24 24 25 26 28 29 29 29 30 30 30 31 31 32 34 35 35 35 35 34 35 35 32 31 32 32 31 30 29 29 27 24 24 24 26 29 29 30 36 38 35 36 37 33 33 35 35 36
16 18 20 22 24 25 27 28 30 31 32 33 34 35 37 38 38 38 37 35 34 33 33 33 32 31 32 32 31 30 30 30 29 28 26 26 26 27 27 28 28 29 30 31 31 31 31 31 32 32 32 33 34 35 36 37 38 39 37 33 31 32 32 31 31 30 28 26 25 23 21 22 29 34 35 39 40 36 36 37 31 27 28 26 25
15 18 20 23 25 26 27 28 30 31 32 32 33 35 36 37 38 39 39 38 37 34 33 33 33 32 32 32 32 32 33 32 31 29 27 27 28 28 28 30 30 30 31 31 32 32 32 32 32 32 32 33 33 33 34 36 38 40 40 37 35 35 35 33 32 32 30 27 27 26 23 24 31 36 35 35 37 36 37 39 34 29 28 22 16
17 21 23 25 27 27 28 29 30 31 31 32 33 34 35 35 36 38 38 39 38 37 36 36 36 35 33 33 34 34 34 35 33 30 29 29 30 29 30 31 31 32 32 31 32 33 32 32 33 32 32 32 32 32 32 34 35 37 39 40 40 41 41 39 37 34 32 30 29 29 30 30 31 34 36 35 36 36 35 36 37 35 31 27 21
23 26 27 28 29 29 29 30 30 31 31 32 33 33 33 34 35 36 36 36 36 37 38 39 39 39 37 35 35 36 36 36 36 34 33 33 31 31 32 33 33 33 33 33 33 33 32 32 32 33 33 32 32 32 32 33 33 33 34 36 40 43 45 46 44 41 38 35 32 33 37 36 31 34 39 39 37 36 34 34 37 36 32 32 32
27 28 29 30 29 30 30 30 31 31 32 32 32 32 32 33 34 34 34 34 34 35 37 38 40 41 41 39 39 39 39 40 38 35 35 36 33 31 33 34 35 34 34 34 34 34 34 33 32 33 34 32 31 32 32 32 32 32 32 33 37 40 43 45 47 46 45 42 39 40 43 40 35 35 38 40 41 41 40 38 38 38 37 37 37
26 27 28 29 29 29 29 29 30 32 33 33 33 32 32 32 32 33 32 32 33 34 35 37 39 41 42 42 41 42 45 46 40 33 33 34 33 33 34 35 35 36 36 36 36 36 36 35 34 35 35 33 33 33 32 32 31 31 32 33 35 36 38 42 45 46 46 45 45 45 45 41 38 36 37 41 46 46 45 44 43 41 39 34 29
24 25 26 28 29 29 29 30 31 33 34 34 33 32 32 32 33 33 32 33 34 35 36 38 39 41 42 42 42 44 48 51 47 38 34 33 33 34 35 35 36 36 37 38 37 37 37 36 36 36 36 35 35 35 34 33 32 31 32 34 34 35 37 40 42 43 44 44 46 48 45 41 39 37 37 40 45 45 41 38 37 35 30 22 18
24 25 26 28 29 29 30 31 33 34 34 33 33 32 33 34 34 34 33 34 36 36 37 38 39 40 41 42 42 43 47 52 51 45 39 36 35 35 35 36 37 38 39 40 39 38 38 38 37 37 37 37 36 36 35 33 33 34 34 34 34 34 37 40 40 39 41 43 46 48 46 43 41 40 39 39 43 45 39 33 33 34 27 16 12
25 26 27 28 29 29 30 31 33 34 33 32 32 33 34 35 35 35 35 36 38 38 38 39 40 40 41 42 43 42 46 51 51 47 44 41 39 38 37 36 36 37 39 40 40 39 39 40 39 38 39 39 38 37 34 33 34 35 34 33 32 32 37 39 35 33 36 39 43 45 46 44 42 40 40 40 42 47 46 40 38 36 29 20 16
26 27 28 28 29 29 30 31 31 31 32 33 33 35 36 36 36 36 36 36 38 40 39 39 40 41 41 42 43 43 46 50 50 47 46 44 42 40 37 35 36 38 39 40 41 40 39 40 40 40 40 40 40 38 36 34 34 35 36 33 29 32 39 36 30 30 33 36 39 41 42 42 40 39 39 39 41 48 51 47 43 40 34 29 23
27 28 29 29 29 30 29 29 30 31 33 35 37 37 37 36 36 37 37 37 38 39 39 39 40 42 43 43 44 45 46 49 50 47 46 46 45 43 41 39 38 39 40 40 39 39 39 40 40 41 40 41 40 39 37 37 36 37 37 33 30 37 40 32 28 32 34 34 36 38 39 40 38 37 38 38 40 46 50 48 46 46 42 33 29
28 29 29 30 30 30 29 29 30 33 34 35 36 36 35 34 35 36 36 37 37 38 39 39 39 43 44 43 43 45 45 46 48 48 46 47 48 47 44 43 42 41 41 40 39 39 39 40 40 41 41 40 39 37 36 37 38 38 38 37 39 43 39 28 27 33 33 32 34 36 37 37 37 37 39 40 40 45 48 48 47 48 46 38 34
29 30 31 31 31 31 31 31 32 33 33 33 34 36 35 33 34 35 35 35 36 37 39 38 37 40 43 42 42 44 45 44 46 47 48 47 48 48 47 47 46 44 42 41 41 40 41 42 42 42 41 41 40 37 35 35 37 37 40 42 45 46 39 30 28 31 31 31 32 32 32 33 34 36 38 39 40 42 44 46 45 45 45 41 39
30 31 32 33 33 33 34 33 33 33 33 33 33 35 35 33 33 33 32 33 34 34 35 34 33 35 39 39 39 40 41 41 42 43 44 44 45 47 47 47 47 46 43 43 43 43 44 44 44 44 43 42 42 40 36 35 36 37 39 42 44 44 40 34 30 29 30 30 29 29 31 32 33 34 36 37 38 38 39 40 41 40 40 40 39
31 33 34 34 35 35 35 34 34 34 33 33 33 33 33 33 32 31 30 30 31 30 31 31 30 30 32 34 35 35 36 39 40 39 40 42 43 45 45 45 46 46 45 45 46 46 46 46 45 45 44 43 43 42 39 37 36 36 37 40 41 40 36 33 31 30 29 28 27 28 30 32 32 33 34 35 34 33 34 35 35 34 35 37 36
32 33 34 34 35 36 36 35 34 34 33 32 32 32 31 31 30 29 29 30 29 28 28 28 28 28 28 29 31 32 32 33 35 35 37 40 41 42 43 43 44 44 45 46 47 47 48 48 47 45 45 44 43 41 39 37 36 36 37 37 37 36 33 32 31 29 27 26 28 29 29 30 32 32 31 31 30 30 32 32 30 29 30 30 29
32 33 34 35 35 35 36 35 34 34 33 32 31 31 31 30 30 29 29 29 29 28 28 27 27 28 28 28 30 32 31 32 33 33 36 38 40 41 43 42 42 42 43 44 46 48 48 47 46 45 44 43 41 38 37 37 36 36 36 35 34 34 32 30 29 28 27 27 28 29 29 28 29 29 28 29 30 30 31 31 30 30 30 29 26
32 33 34 34 35 35 35 35 34 33 32 31 30 30 30 30 30 30 29 30 29 29 29 28 27 27 27 28 31 32 31 32 33 34 37 39 40 41 41 40 39 39 39 38 38 41 43 43 43 42 41 40 39 38 36 35 34 33 33 33 33 33 33 32 31 30 30 29 28 28 28 26 26 28 29 30 31 31 32 34 33 32 31 30 28
31 33 33 34 35 35 33 33 32 31 31 31 30 31 31 31 31 31 31 32 31 31 31 29 29 30 30 29 30 30 29 29 31 33 37 38 38 38 37 37 38 38 37 37 35 34 35 36 36 37 36 34 33 33 33 33 32 31 31 31 32 33 34 33 31 31 31 30 28 26 25 25 27 29 30 30 30 31 32 34 33 32 32 30 27
31 32 33 34 34 33 31 31 31 32 32 32 31 32 32 32 32 33 34 33 33 34 34 33 32 34 33 32 31 29 27 28 31 35 38 39 39 39 38 38 41 41 40 41 40 36 31 29 29 29 29 27 27 27 27 29 29 29 30 30 30 31 32 31 30 29 30 29 27 26 26 25 26 28 29 28 28 30 32 33 32 31 31 28 24
31 32 32 32 32 31 30 31 32 32 32 32 32 32 32 31 32 33 35 35 34 36 38 38 39 39 38 36 35 34 34 37 38 40 41 41 42 42 41 41 43 44 44 45 42 35 29 27 26 25 23 22 22 22 24 25 25 25 28 30 29 29 29 29 29 29 28 28 27 27 27 26 25 26 27 26 26 27 29 31 31 31 30 27 22
31 32 31 31 31 31 31 31 31 31 31 31 31 31 32 31 31 32 34 35 35 36 38 40 41 41 40 40 41 41 42 43 43 42 41 41 41 40 40 41 43 44 44 44 38 31 26 24 22 22 21 19 19 20 21 22 22 22 23 25 26 27 27 27 28 28 27 28 28 27 28 28 27 27 27 26 26 26 27 27 28 29 28 27 23
31 31 31 32 33 32 31 31 30 30 30 31 30 30 30 30 30 30 31 32 33 35 36 37 39 39 39 40 41 41 40 40 40 39 38 38 38 38 38 39 40 40 42 41 35 29 25 23 21 21 21 19 18 19 20 20 20 21 20 19 21 24 26 27 28 28 27 27 27 26 27 29 28 28 28 28 27 27 26 27 27 27 26 25 24
31 32 32 32 32 32 31 30 29 29 29 29 29 29 28 27 27 29 32 33 33 33 34 35 36 36 37 38 39 39 40 40 38 38 37 37 36 36 37 37 37 36 37 36 30 24 22 22 22 22 21 19 18 18 18 19 19 19 19 19 20 23 25 27 27 26 27 27 27 27 28 29 29 29 28 30 30 29 28 27 27 27 26 24 22
32 32 32 32 31 31 30 28 28 28 29 29 29 29 29 29 29 29 30 30 30 31 34 37 36 35 34 36 36 37 38 39 37 36 36 36 36 36 37 36 34 33 33 31 26 21 20 20 21 23 22 19 19 18 17 18 19 19 20 21 22 22 23 24 25 25 26 27 27 28 29 30 31 30 29 29 29 28 27 27 27 26 24 22 21
32 32 31 30 29 29 29 28 28 28 29 29 30 30 30 31 30 29 28 27 27 28 32 37 39 37 35 34 34 36 37 36 35 35 34 34 35 36 34 30 27 26 26 26 25 23 22 21 20 21 24 21 18 18 17 18 19 20 20 20 20 21 22 24 25 26 27 27 27 29 30 32 33 33 32 31 29 27 26 26 26 26 24 23 22
31 30 30 29 28 28 29 29 29 29 29 30 31 31 31 30 29 29 29 28 28 28 30 34 38 40 38 35 33 32 33 34 34 34 34 34 34 33 28 23 22 22 22 22 23 24 25 25 23 23 25 25 19 18 18 19 21 22 22 22 21 21 23 24 25 25 26 27 29 30 31 32 32 32 31 30 29 28 27 26 26 25 25 25 23
30 30 29 28 28 29 30 30 30 30 30 30 30 30 30 29 29 29 28 28 28 28 30 32 34 35 37 38 36 33 32 33 34 33 33 32 30 27 24 22 22 21 20 22 25 25 25 26 26 25 26 23 19 17 18 21 23 23 23 23 23 24 25 26 28 29 29 28 29 30 30 30 30 30 29 27 26 25 25 26 26 25 25 26 24
29 29 28 27 27 27 28 29 29 29 29 30 29 29 28 29 29 28 27 27 28 28 28 30 29 27 29 35 38 36 34 33 32 31 31 29 26 23 23 23 23 20 16 17 21 23 24 25 25 25 24 22 20 19 20 22 23 23 23 23 24 25 26 27 28 29 29 27 27 27 28 27 27 29 30 27 26 25 25 26 26 24 23 24 23
30 30 29 27 25 26 26 26 28 28 28 29 28 28 28 28 27 27 26 27 27 26 26 27 27 27 28 32 35 35 32 28 27 28 29 29 27 25 23 22 21 21 22 22 19 16 20 24 26 26 26 25 22 20 21 22 22 23 24 24 23 23 24 25 25 25 26 25 25 26 26 27 28 29 29 27 27 27 26 26 26 25 24 23 22
31 31 30 28 26 25 26 26 26 27 27 27 28 28 27 26 26 26 26 26 25 25 25 25 25 28 30 31 32 31 27 23 23 24 25 25 26 25 24 22 21 22 24 24 24 22 17 20 25 26 25 24 21 20 21 22 23 24 25 26 25 24 24 25 26 26 25 25 26 26 26 27 27 27 26 25 26 27 27 26 26 25 25 24 23
30 30 29 27 26 25 26 25 26 26 27 27 27 26 26 27 27 26 26 25 24 25 25 25 26 29 29 29 31 30 25 20 21 23 22 21 22 21 22 23 23 24 24 23 24 25 17 12 19 20 18 18 18 19 20 22 23 24 24 24 24 23 23 24 25 25 25 26 26 26 27 27 28 27 25 24 24 26 26 26 25 24 24 23 23
28 28 27 26 25 25 25 25 26 27 27 27 26 25 26 26 27 26 25 25 24 24 24 25 27 29 28 29 31 30 24 20 20 21 21 22 21 20 22 24 23 22 22 22 21 20 15 4 5 7 9 11 14 16 18 20 22 22 22 22 22 22 23 23 24 24 25 26 26 26 27 27 27 26 25 25 26 26 26 26 26 25 25 24 23
27 25 24 24 24 24 24 24 25 26 25 25 25 25 25 25 26 26 25 24 24 23 22 23 26 27 27 28 29 27 23 21 21 20 20 21 22 23 25 27 25 22 20 19 18 16 12 8 6 4 2 3 6 10 14 18 21 22 21 22 22 23 23 24 24 25 26 26 25 26 26 26 26 26 26 27 27 27 26 25 25 25 24 24 24
25 24 23 23 23 23 22 23 23 24 24 25 24 24 23 24 25 26 25 24 23 22 21 22 24 25 26 27 28 25 22 22 22 21 21 21 23 24 25 26 25 23 21 19 17 15 12 10 10 9 7 5 3 4 8 12 16 19 21 23 23 24 25 26 27 28 28 28 28 27 27 26 27 27 27 28 28 27 26 25 25 24 23 23 22
23 22 23 23 22 22 22 22 23 23 24 24 24 24 24 24 24 24 23 23 23 22 21 22 22 23 24 25 25 24 22 22 22 22 22 22 23 24 25 24 23 23 22 20 18 16 14 13 12 11 10 9 7 6 7 9 11 14 17 20 22 23 24 25 26 27 29 30 30 29 28 28 28 28 28 28 28 27 26 25 25 25 23 22 21
21 20 21 21 21 22 22 23 23 23 23 23 23 24 24 24 23 23 22 22 22 21 22 22 22 22 22 23 24 23 23 23 22 22 22 23 24 25 25 24 23 22 21 20 19 18 16 14 13 13 12 12 11 10 10 10 10 11 13 16 18 19 21 23 25 27 29 30 31 31 30 29 28 28 29 28 27 27 26 25 25 24 24 23 22
19 19 19 19 20 21 21 22 23 22 22 22 22 22 22 23 23 23 23 22 22 22 22 23 23 23 23 23 24 24 23 23 23 23 23 24 25 25 25 24 24 23 22 21 20 19 18 16 15 15 14 13 13 12 12 11 11 11 12 13 15 16 19 21 23 25 27 29 31 32 32 30 29 29 28 28 27 27 26 24 24 23 23 22 22
18 18 18 18 19 20 21 22 22 22 22 23 22 22 22 22 23 23 24 24 24 24 24 24 24 24 24 24 24 24 24 24 24 25 25 25 26 26 26 25 25 24 24 23 23 21 19 18 16 15 15 15 15 14 13 12 11 11 11 11 13 15 17 20 22 24 26 27 29 30 31 30 30 29 29 28 28 27 25 24 23 22 21 21 21
17 17 17 18 19 20 20 21 21 21 22 22 22 22 22 22 23 23 23 24 24 24 24 24 24 24 24 24 24 25 25 26 26 27 27 27 27 26 26 26 26 26 26 26 25 24 23 22 20 19 18 17 17 16 15 14 13 13 12 11 12 13 16 19 22 24 25 26 27 27 28 29 28 28 27 27 26 26 25 24 23 22 21 20 19
16 16 17 18 19 19 20 20 20 21 21 21 21 21 22 22 23 24 24 24 24 24 24 24 24 24 25 25 25 25 26 26 27 27 28 28 28 28 28 28 28 28 28 29 29 29 29 28 27 25 24 22 20 19 18 17 17 16 16 15 15 16 18 20 23 25 26 27 27 28 29 29 28 27 26 26 26 25 25 23 22 21 20 19 17
15 16 16 17 18 19 20 20 21 21 21 20 20 21 21 21 22 23 23 23 24 24 24 24 24 24 25 25 25 25 26 27 27 27 28 28 29 29 30 30 29 30 30 30 31 31 31 31 31 30 29 27 26 24 22 21 20 19 19 19 20 21 22 23 24 25 26 27 27 27 28 28 28 27 26 25 25 24 23 22 21 20 19 18 17
Wind_Direction
27 26 24 20 18 17 14 13 15 17 19 20 19 18 15 13 11 7 5 4 2 1 1 1 0 356 349 342 334 327 320 314 309 303 296 289 283 278 274 270 266 265 265 263 259 256 254 254 253 251 250 248 247 247 246 245 244 242 240 238 235 231 223 215 218 222 210 216 220 217 216 212 209 211 213 214 216 218 218 220 220 221 223 224 224
20 18 16 13 11 8 5 5 5 6 8 10 9 9 8 6 5 3 1 1 359 357 356 355 355 354 352 350 346 339 330 322 315 309 301 293 286 279 275 271 268 267 265 264 262 260 257 254 254 253 251 250 248 247 246 244 244 243 242 241 240 238 234 227 225 221 203 204 209 210 209 207 206 208 211 215 216 215 214 215 217 220 223 224 224
15 14 11 7 6 2 358 358 356 355 356 357 358 358 356 354 354 353 352 352 352 353 352 352 351 350 349 348 346 343 339 331 322 313 304 297 291 285 279 274 271 269 267 265 264 262 260 257 255 254 252 251 249 247 246 244 242 242 241 240 240 239 237 234 231 226 210 200 201 200 199 202 206 209 212 216 217 214 212 213 215 218 220 223 225
8 10 9 4 3 1 357 355 352 349 347 345 347 348 347 344 342 341 342 343 345 347 347 347 347 346 345 344 342 339 338 336 330 321 310 301 296 292 287 281 276 273 270 268 266 263 261 259 258 257 254 252 251 248 246 245 242 241 241 240 239 238 236 233 233 230 219 203 200 202 200 201 206 209 209 211 214 215 213 212 213 216 219 222 224
1 4 3 359 357 356 352 350 347 346 344 339 337 338 339 339 336 333 334 335 336 339 341 341 340 339 338 337 335 333 331 329 326 324 318 308 298 292 289 285 281 278 275 272 269 266 263 261 260 259 256 254 253 249 245 244 243 242 242 241 239 239 236 233 232 231 225 211 201 201 202 201 202 206 206 204 206 211 213 213 214 216 219 222 224
356 358 358 354 351 349 345 343 341 341 340 336 332 330 332 333 332 330 330 329 328 330 333 334 332 331 331 330 329 328 324 320 317 315 313 309 301 293 288 285 283 282 280 277 273 269 266 264 262 259 257 255 254 253 248 245 244 242 241 241 239 239 237 234 232 229 228 222 206 197 199 199 198 201 204 204 202 202 206 210 214 217 219 221 223
346 349 350 348 345 343 340 338 336 336 336 333 327 325 326 326 326 326 326 324 322 322 324 325 324 324 324 324 324 323 320 316 312 309 307 304 300 295 290 287 284 283 281 279 275 272 269 267 264 260 257 256 256 255 252 248 245 242 241 240 238 236 235 234 232 228 227 225 211 199 198 199 199 200 202 202 203 203 200 199 205 213 218 221 222
334 338 340 339 338 336 333 331 330 330 330 328 325 323 323 321 321 322 322 320 318 316 317 317 316 316 316 317 318 317 315 312 310 309 307 304 301 298 294 291 289 286 283 280 276 274 273 270 268 264 260 259 258 256 254 251 248 246 243 240 235 233 232 232 231 228 227 224 215 204 198 196 198 198 195 193 197 203 201 198 200 206 211 217 221
321 327 330 330 329 327 325 323 323 322 322 321 320 320 319 318 317 316 315 315 314 312 312 311 310 309 310 311 311 311 309 307 306 306 305 304 303 300 296 293 291 288 285 284 280 276 274 272 270 268 265 263 261 259 256 254 251 249 246 241 235 231 230 229 227 226 225 225 219 205 194 195 196 190 186 191 196 200 200 201 206 207 205 210 217
308 315 318 318 317 317 316 316 316 315 314 314 314 314 313 313 312 311 310 310 310 309 308 307 305 303 305 306 305 304 303 302 302 301 299 299 299 298 296 293 290 287 284 283 282 279 277 275 272 270 268 266 264 262 259 256 254 252 250 244 237 232 229 226 225 223 222 224 221 206 195 200 201 194 194 198 198 196 194 197 204 204 200 205 215
303 306 307 307 308 307 308 308 309 307 307 307 306 306 307 307 306 305 306 306 307 307 306 303 300 300 300 300 299 298 298 298 297 295 292 292 292 292 292 291 288 285 281 279 278 278 277 276 275 273 270 267 265 263 261 259 256 255 253 249 244 239 233 228 226 224 221 222 223 215 207 210 207 202 201 200 196 195 195 195 197 195 193 198 206
309 308 306 304 303 303 302 302 302 301 300 300 300 300 300 299 298 298 299 301 303 305 304 301 299 298 297 295 294 293 293 294 293 289 285 286 287 285 285 287 286 283 279 276 275 275 275 275 274 272 270 267 265 263 261 260 259 257 256 253 249 246 241 236 231 227 223 222 223 219 218 219 213 205 203 200 196 196 197 196 197 197 196 200 201
314 309 306 304 302 301 301 299 298 297 297 296 296 296 295 293 293 293 293 295 298 299 300 299 298 297 296 294 292 291 290 289 288 285 283 283 282 280 280 282 283 280 277 275 273 272 271 271 270 270 269 267 266 263 261 260 259 258 257 255 253 250 246 241 238 234 230 227 226 225 224 223 218 210 207 201 195 194 195 198 201 200 200 205 207
310 307 305 303 303 302 301 299 298 298 298 297 296 294 292 291 290 290 290 291 293 295 296 296 296 295 294 293 293 292 289 288 285 283 283 282 279 276 277 279 278 277 276 275 273 272 270 268 266 267 267 266 264 262 260 258 257 256 255 253 252 250 248 244 241 238 235 232 231 232 231 227 224 220 213 205 200 198 197 200 202 203 206 211 214
306 305 304 304 304 305 304 302 301 301 301 300 298 295 293 292 292 291 290 289 290 291 291 292 291 291 291 291 292 291 289 289 287 282 279 279 277 275 276 275 273 272 273 273 273 272 271 268 265 265 265 264 262 261 259 257 255 254 252 250 249 249 248 245 242 239 237 235 234 236 236 233 230 227 219 210 209 208 206 207 208 206 207 210 212
306 305 305 305 306 307 307 306 305 305 303 302 299 297 296 296 295 294 292 289 288 288 287 287 287 286 286 287 288 288 288 288 288 285 281 279 276 276 274 272 271 270 270 271 271 271 270 268 265 264 263 262 261 260 258 257 255 252 250 249 249 248 248 247 246 242 239 237 238 239 239 238 235 233 227 218 213 210 208 209 208 203 199 198 195
308 308 306 306 307 308 309 309 308 306 304 302 300 299 299 298 297 297 295 292 289 287 286 285 284 282 282 283 283 284 285 286 286 285 284 281 279 278 275 272 270 268 268 268 268 268 268 265 264 262 261 261 261 259 257 254 252 250 249 249 249 248 249 249 247 244 242 241 240 241 241 240 237 236 234 227 219 209 201 201 202 196 190 188 188
311 311 309 309 309 309 309 309 307 305 304 303 303 302 302 300 299 298 296 293 290 288 287 285 283 280 279 279 279 280 281 282 283 284 283 282 280 278 276 273 271 269 268 268 266 265 265 265 263 260 259 260 260 258 255 251 248 247 247 248 247 246 249 249 245 242 241 240 240 241 242 240 238 236 234 231 223 211 204 204 202 192 189 197 194
314 313 311 310 309 308 309 308 306 305 305 305 305 304 302 301 299 297 295 292 290 289 287 285 282 280 278 277 278 278 278 279 280 281 281 281 280 278 276 274 272 270 269 268 267 265 263 263 262 260 258 260 260 258 254 248 245 244 245 245 243 245 249 247 241 237 236 235 236 238 239 238 236 234 232 230 224 216 212 211 204 194 195 201 188
313 311 310 310 309 309 310 309 306 305 304 304 303 302 301 300 299 297 295 293 291 288 287 285 283 281 280 279 278 276 276 277 278 278 279 279 278 277 276 273 270 268 267 266 265 264 261 260 260 259 258 258 258 256 254 249 245 243 243 240 239 245 249 245 237 236 234 232 232 233 234 233 232 230 229 227 223 219 216 214 208 203 203 200 189
312 312 311 311 311 311 310 308 305 304 304 303 301 300 299 299 298 297 296 295 293 291 289 288 286 284 282 281 279 277 276 276 277 278 278 277 277 276 274 271 268 267 266 264 262 261 260 258 257 257 257 258 256 252 249 249 246 242 240 240 241 246 248 242 236 237 234 230 230 230 229 229 227 226 226 225 223 220 216 214 213 211 208 202 196
315 314 313 313 312 311 309 307 306 305 303 302 300 298 299 299 298 297 296 295 293 292 291 290 288 286 285 283 281 280 279 278 278 279 278 278 277 276 273 270 269 267 265 264 261 258 257 256 256 256 255 256 257 253 246 244 243 241 240 242 245 247 246 239 235 234 230 227 227 225 224 224 222 222 222 222 222 220 216 214 214 213 212 209 206
317 316 315 313 311 311 310 309 308 306 304 302 300 298 298 298 297 295 294 293 293 291 290 290 288 286 287 286 284 283 283 283 282 281 282 282 281 279 276 273 271 268 264 262 260 258 257 255 255 255 254 254 255 254 248 242 241 241 242 243 245 245 243 238 233 228 225 225 224 222 221 220 218 218 219 219 219 219 216 214 214 213 211 211 212
318 316 314 313 312 312 311 310 309 306 305 303 300 298 298 297 295 294 293 292 291 289 289 289 287 286 286 286 286 285 285 286 286 285 286 287 286 284 282 279 276 271 267 263 260 258 257 255 254 253 253 253 253 253 250 244 241 241 241 241 242 242 239 234 229 225 222 221 221 221 222 219 216 217 217 216 216 215 213 213 213 211 209 208 209
317 315 314 313 312 312 311 310 309 308 307 305 301 298 297 296 294 294 292 290 288 286 286 287 285 284 285 286 287 287 287 288 289 289 291 292 292 291 289 286 282 277 271 266 262 259 257 255 254 254 253 253 252 251 249 245 241 240 240 239 238 237 235 231 227 223 219 218 220 222 223 220 217 217 216 213 210 207 205 204 203 202 201 200 199
316 314 313 312 312 312 311 310 310 308 306 304 299 296 296 294 293 292 291 288 286 284 285 285 284 284 284 284 286 288 289 290 290 291 293 293 293 293 293 289 286 282 277 271 265 261 259 256 253 252 252 251 249 247 245 244 242 240 239 237 235 233 231 229 224 220 218 219 220 221 223 221 217 215 211 205 200 197 193 189 186 187 190 188 181
315 313 312 313 313 313 311 309 307 306 305 303 300 297 295 293 291 290 288 287 286 284 284 283 282 282 281 281 282 283 283 284 285 286 288 288 288 290 291 289 289 289 288 282 272 263 260 259 256 253 252 250 248 246 243 242 240 238 236 234 231 230 229 228 224 220 219 220 220 220 221 216 209 205 201 196 193 192 189 184 181 181 184 181 172
313 311 311 313 312 310 308 305 304 304 303 302 300 297 295 293 289 286 284 284 283 282 281 279 278 277 277 278 279 278 276 276 278 280 281 281 281 283 285 287 290 291 291 291 286 275 264 260 258 257 253 250 247 244 241 237 234 232 231 230 228 228 228 228 226 222 221 220 217 215 212 205 198 196 193 189 189 188 186 184 182 180 177 174 167
311 310 311 310 308 306 305 304 304 303 301 300 298 295 294 292 289 286 285 283 281 281 281 280 279 279 277 276 277 278 276 276 277 277 277 277 278 279 280 281 284 285 285 288 291 290 278 264 255 252 251 246 241 238 236 232 228 226 226 226 226 225 224 224 222 220 218 215 211 205 200 195 191 189 186 184 185 185 183 182 180 177 175 175 172
311 310 309 307 304 305 305 304 303 302 301 300 298 296 295 292 290 289 289 288 287 286 287 287 288 288 287 286 285 285 286 288 289 288 288 288 288 286 284 282 282 282 283 286 289 292 286 270 252 242 241 240 236 233 230 226 222 220 222 223 223 222 221 219 219 219 215 210 206 200 193 188 186 183 182 180 179 179 181 182 179 175 174 175 174
310 307 306 304 304 305 304 303 303 302 300 299 299 298 297 296 293 291 290 291 293 292 291 291 292 292 293 293 293 293 294 295 297 296 295 295 294 291 288 285 283 282 283 285 285 285 284 277 260 242 234 232 232 232 230 227 222 218 218 220 220 219 218 217 217 216 210 204 202 196 189 185 183 181 180 178 174 173 176 178 177 176 177 178 175
306 302 302 303 304 304 303 302 302 301 300 300 299 298 298 298 297 296 295 295 296 296 295 295 295 295 295 295 296 297 297 297 298 298 297 295 293 291 288 286 284 283 282 280 279 277 279 283 276 256 237 226 229 234 232 228 225 221 218 217 217 216 216 217 216 212 205 199 196 191 185 182 180 179 177 174 170 170 172 174 176 177 178 179 178
303 299 300 302 303 304 303 303 301 300 300 300 299 298 298 298 298 300 301 300 298 297 297 296 296 296 297 297 298 298 298 298 298 298 297 295 292 291 288 285 283 282 279 277 275 273 274 280 283 275 253 228 221 229 233 229 226 222 219 218 217 216 216 215 212 207 201 197 193 187 182 179 177 175 175 174 172 172 173 175 177 178 178 179 179
302 299 299 300 300 301 302 301 300 299 299 298 297 297 297 296 297 299 301 303 304 303 302 302 300 299 299 299 299 299 298 299 300 299 298 297 295 293 291 288 284 280 275 271 270 270 270 270 275 280 273 246 219 215 224 228 225 222 221 221 220 217 212 208 203 199 196 193 188 183 179 177 175 174 174 174 175 175 176 176 177 177 177 177 175
303 300 300 300 300 301 301 301 300 299 299 298 297 296 296 296 296 296 297 300 302 303 303 304 305 304 301 299 300 301 301 302 302 302 301 299 298 298 298 293 284 273 266 262 260 260 263 265 264 270 276 264 231 207 210 221 224 224 223 220 216 208 202 198 195 193 190 186 183 181 179 178 178 178 177 175 175 176 177 178 178 178 177 175 172
304 303 302 303 304 303 302 302 301 300 298 298 297 296 296 296 295 295 295 296 297 298 299 301 304 306 306 304 304 304 304 304 304 303 302 301 300 301 299 291 279 266 254 249 249 248 250 256 258 262 268 262 236 206 204 216 223 224 223 219 210 198 192 190 189 186 185 183 183 183 182 181 181 180 177 175 176 176 176 176 177 177 177 175 173
305 303 303 305 307 307 306 305 303 302 301 300 299 299 298 298 297 296 296 295 296 297 298 300 304 307 309 310 312 311 308 307 306 304 302 301 301 299 294 290 288 278 257 244 243 241 241 245 249 252 255 246 223 204 209 218 221 223 220 213 204 196 190 188 186 184 183 184 184 184 183 182 181 178 174 172 173 174 174 174 173 174 175 174 171
306 304 303 305 308 308 307 306 306 306 306 304 303 302 301 300 300 299 297 297 297 298 299 302 304 304 304 309 314 315 313 311 310 309 307 307 306 303 298 298 303 306 297 272 254 240 232 234 239 241 238 228 214 212 218 220 218 216 210 203 198 194 190 187 185 184 183 183 183 182 180 178 176 175 173 171 170 170 171 172 170 168 168 169 168
309 308 308 310 311 311 309 307 308 309 308 307 307 307 305 304 304 303 301 301 300 300 301 302 303 303 304 308 312 314 312 310 309 309 308 309 309 308 307 307 312 319 321 315 302 272 242 231 232 231 226 220 215 216 218 216 212 206 200 193 189 185 182 181 180 179 179 179 178 177 176 174 173 174 174 172 170 169 169 169 169 167 165 167 169
311 311 313 316 317 314 312 310 309 310 310 310 311 311 310 310 310 308 308 307 306 305 306 305 304 307 309 310 313 316 316 314 313 313 312 312 314 317 319 323 327 327 325 325 327 320 287 240 224 220 215 211 211 214 215 212 205 198 193 188 183 179 178 178 176 175 175 175 173 172 172 172 171 171 171 171 170 169 167 167 168 166 165 165 165
312 311 313 318 318 315 313 313 313 314 315 314 315 315 314 314 315 315 315 315 314 313 313 313 312 314 317 320 325 330 331 329 327 328 328 328 328 329 332 334 334 333 332 335 339 336 318 248 211 206 203 204 209 212 209 204 198 192 187 183 177 173 171 171 171 172 171 170 169 169 169 170 169 168 167 167 166 165 164 164 162 161 160 160 158
313 312 314 318 319 316 314 315 317 319 320 319 319 319 318 317 318 319 319 320 321 321 320 320 322 324 327 332 337 339 339 336 334 335 337 337 336 336 339 344 345 343 341 346 352 351 344 324 194 191 199 205 209 207 200 196 192 186 179 173 168 164 163 164 166 167 166 166 167 167 166 166 166 164 162 161 159 159 159 159 158 156 154 155 155
314 314 316 318 318 316 316 318 321 323 323 322 322 322 322 322 323 323 323 323 325 326 326 326 328 329 331 336 341 342 342 341 340 339 340 341 340 340 342 348 355 359 359 2 9 12 13 23 43 57 93 177 194 196 195 192 187 178 171 166 163 160 160 160 162 163 163 162 162 163 162 161 160 158 156 156 156 155 155 155 155 154 153 153 155
317 319 321 321 321 321 322 325 327 326 326 325 325 326 327 328 328 328 328 328 330 331 330 331 332 333 333 337 341 343 343 342 341 341 341 341 342 345 348 350 355 3 10 16 20 27 36 47 52 55 60 69 100 163 177 178 177 173 169 166 163 161 162 163 164 165 165 161 158 158 157 156 156 155 155 155 155 153 152 153 152 151 150 151 153
321 324 325 325 326 327 330 334 334 332 331 331 331 333 335 335 335 335 334 334 335 335 334 334 336 335 336 338 342 343 344 344 344 345 345 345 346 349 354 358 1 8 17 23 27 33 41 48 54 60 65 69 79 103 128 145 158 164 165 165 163 163 164 166 166 166 164 161 157 155 155 154 155 154 154 155 155 153 151 151 150 148 148 150 151
325 328 328 329 330 332 335 339 339 337 336 336 336 337 339 340 341 341 340 339 338 338 338 340 342 343 344 346 347 348 349 350 351 351 351 354 357 359 2 8 14 19 25 30 35 40 45 50 58 68 74 79 88 99 109 122 137 149 157 161 163 163 165 167 167 166 164 161 158 155 154 153 153 153 153 153 152 150 147 147 147 147 148 149 150
330 332 333 334 335 337 339 341 341 339 339 340 340 341 342 344 345 346 346 346 346 346 347 349 351 353 355 355 356 357 358 359 1 1 2 5 8 10 13 18 23 28 32 37 41 46 52 58 65 73 79 85 92 98 103 110 121 135 148 158 164 166 167 168 166 164 163 160 158 156 153 151 149 150 150 148 146 144 144 145 146 147 148 149 150
335 338 341 343 343 343 344 344 343 342 342 342 343 345 347 347 348 350 351 352 353 354 355 357 359 1 2 3 3 4 6 8 10 12 13 14 17 19 22 25 28 32 37 41 44 48 53 59 65 72 79 83 87 93 99 104 111 123 135 148 158 163 164 164 162 158 156 155 154 152 151 148 146 146 147 145 144 143 142 142 144 145 146 149 152
341 345 348 349 351 350 349 347 346 344 344 345 345 347 349 351 351 353 354 355 357 359 360 1 2 4 6 8 9 10 12 14 16 18 19 21 23 26 29 32 35 38 42 45 48 51 55 60 64 68 73 77 80 84 89 92 97 105 114 125 140 150 156 157 154 151 150 148 147 145 144 142 141 141 142 142 142 142 141 141 143 144 145 147 152
348 353 355 356 356 355 354 354 352 351 350 349 349 349 350 352 354 356 357 358 360 2 4 5 6 7 8 11 13 15 17 19 21 23 26 27 30 33 37 40 43 46 48 51 54 57 59 61 63 65 68 72 76 80 85 88 91 98 106 114 125 134 139 141 143 145 145 145 143 143 141 139 137 137 138 139 140 141 141 141 143 145 146 147 150
354 359 2 2 2 1 360 359 358 356 355 355 353 352 352 353 355 358 1 1 2 4 6 9 12 13 14 15 17 19 22 24 26 28 31 33 35 38 42 46 50 53 54 56 58 60 60 61 61 62 64 67 70 75 81 86 91 99 107 113 119 125 129 133 137 141 144 144 144 143 142 141 139 138 138 139 140 141 141 143 146 148 150 152 154
Height
801 802 802 802 802 802 802 802 801 799 796 794 792 791 789 788 787 786 784 783 782 780 779 777 775 774 773 771 769 767 765 764 763 762 761 760 759 760 761 762 762 761 761 760 759 759 759 758 759 760 762 762 762 763 764 765 767 767 767 767 766 766 767 766 765 766 767 768 769 771 773 775 778 780 783 785 787 787 789 792 795 796 797 799 801
804 804 804 804 803 803 803 802 801 800 797 796 794 792 791 790 789 788 787 786 784 782 780 777 775 773 771 770 767 766 764 762 761 761 760 759 758 758 759 759 758 758 757 756 756 756 755 754 754 756 759 758 757 758 759 761 763 763 764 764 763 763 764 764 763 764 765 765 766 768 770 772 773 776 778 780 782 783 784 787 790 792 793 795 797
805 805 805 804 804 803 803 802 801 800 798 796 795 793 792 791 790 790 789 787 786 784 781 778 775 772 770 768 766 765 763 761 761 760 759 759 757 757 757 756 755 754 753 752 752 752 751 751 751 753 755 754 753 754 755 756 758 759 759 760 760 759 760 761 761 760 761 762 763 763 765 767 769 771 773 776 779 780 781 782 785 788 790 792 793
805 805 804 804 803 803 802 801 800 799 798 796 795 793 792 791 790 789 788 786 784 782 779 776 774 772 770 769 766 764 762 760 759 758 757 756 755 754 754 753 752 751 750 749 748 748 747 747 748 750 751 749 748 749 751 752 753 754 755 756 756 756 757 758 757 757 757 758 758 759 760 762 764 766 769 772 776 778 779 780 781 784 786 788 790
805 804 803 802 802 801 801 800 799 798 796 795 793 791 790 789 788 786 784 782 780 778 776 774 773 771 770 769 767 765 762 760 758 756 755 754 753 752 751 751 750 748 747 746 744 744 743 743 744 746 747 745 744 745 747 748 749 749 750 751 752 753 754 754 754 754 754 753 753 756 757 758 760 762 764 767 771 775 777 778 778 780 783 785 786
804 803 802 801 801 800 799 798 797 795 794 792 790 788 787 786 784 783 781 779 777 776 774 773 772 770 769 767 766 764 762 761 759 757 755 753 752 751 749 748 747 745 743 742 741 741 740 739 740 742 742 741 740 741 743 743 744 744 744 746 748 750 750 750 750 750 750 749 749 751 753 754 756 758 760 762 764 768 771 774 775 777 778 780 782
803 802 801 800 799 798 797 796 794 792 791 789 788 786 784 783 781 780 778 777 775 773 772 771 770 768 767 765 764 763 761 760 759 757 755 753 751 749 747 745 743 741 740 739 738 738 737 736 736 737 737 736 736 738 739 740 739 739 739 741 743 745 745 746 746 746 746 745 745 746 747 749 751 753 755 758 761 763 765 768 770 772 773 774 776
802 801 800 799 798 797 795 794 792 790 789 787 785 783 781 780 778 776 775 773 772 770 769 768 767 765 764 763 762 760 759 758 756 755 752 750 748 746 744 742 739 737 736 735 734 734 733 733 733 732 732 731 732 734 735 736 736 735 735 736 738 739 739 740 742 742 742 741 741 741 743 745 747 749 752 755 757 758 759 762 763 763 766 768 770
801 801 800 799 798 796 795 793 791 789 787 785 783 781 778 777 775 773 772 770 769 767 766 764 763 761 760 759 758 757 756 754 753 751 749 747 744 742 739 737 736 734 732 730 730 729 729 728 728 728 728 727 728 729 730 732 732 731 731 733 734 733 733 734 735 737 737 737 736 736 739 740 741 743 745 745 744 746 752 756 758 758 761 763 765
801 800 799 798 797 795 794 792 790 788 785 783 781 779 777 774 772 770 768 766 765 764 762 760 759 757 755 754 753 752 751 750 748 747 746 744 741 739 736 734 732 730 728 726 725 724 724 723 723 723 723 723 723 724 725 727 727 727 728 730 730 728 727 728 728 729 730 731 731 732 733 733 732 733 733 734 737 742 746 750 753 757 760 762 762
800 799 797 796 795 793 791 789 787 785 783 781 779 777 775 772 770 768 765 763 762 760 759 757 755 753 752 750 749 747 745 744 743 743 742 740 738 736 733 731 728 727 725 723 721 719 719 718 718 718 718 718 718 719 720 721 721 722 723 725 725 724 722 721 721 721 723 723 724 726 725 724 724 725 728 730 734 737 739 742 747 751 754 755 755
798 797 795 794 792 790 788 786 784 782 779 778 776 773 772 769 767 765 762 760 759 756 755 753 751 749 748 746 744 742 740 739 738 738 737 735 734 732 730 727 725 723 721 719 717 715 714 714 713 713 713 712 713 714 714 714 715 716 718 719 720 718 717 716 715 715 717 717 717 718 718 716 717 720 722 725 729 732 735 738 739 742 744 745 746
796 794 793 791 789 787 785 783 780 778 776 774 772 770 768 766 764 762 760 758 756 754 751 749 747 745 743 741 739 737 735 733 733 732 731 729 729 727 725 723 720 718 717 715 713 711 710 709 708 707 707 707 708 708 708 708 709 710 711 712 713 712 711 711 710 710 711 711 711 710 708 710 712 713 715 718 723 728 731 732 733 735 737 736 736
794 792 790 788 786 784 782 779 777 774 772 771 769 767 765 763 760 759 757 755 753 751 748 746 743 741 739 737 734 731 729 727 727 727 725 724 723 722 720 718 715 713 712 710 708 707 705 704 703 701 701 702 702 702 702 703 703 703 704 704 704 704 704 705 704 705 705 706 705 702 702 705 707 709 711 715 717 718 721 724 726 729 730 730 731
792 790 788 785 783 781 779 776 774 771 769 767 765 763 761 759 757 756 754 752 750 747 745 743 740 737 735 733 730 726 722 721 721 721 720 718 717 716 715 712 709 707 706 704 703 701 700 699 698 696 695 696 696 697 697 697 697 697 697 697 697 697 698 698 697 698 699 699 699 697 698 702 704 705 707 709 710 712 715 717 720 723 725 727 729
790 788 785 783 780 779 776 774 771 769 767 764 762 759 757 755 754 752 750 748 746 743 741 738 736 733 730 728 726 721 716 714 714 714 714 713 712 711 709 706 703 701 699 697 696 695 694 694 692 690 689 689 690 691 692 693 692 692 691 690 690 690 690 690 690 692 693 694 694 693 695 699 702 703 703 704 706 710 714 717 718 720 722 725 726
787 785 782 780 778 776 774 772 769 766 764 761 758 756 754 752 750 749 747 744 741 739 736 734 732 729 726 723 721 717 712 709 708 708 708 707 706 705 703 700 697 694 692 690 689 688 688 687 686 685 683 683 683 684 686 687 687 686 685 684 684 684 682 681 684 687 688 689 689 690 692 695 697 699 700 700 701 705 709 711 711 713 717 720 721
783 781 779 777 776 774 772 770 767 764 761 759 756 754 751 749 747 746 744 740 736 734 731 729 726 723 721 718 716 713 708 703 702 702 701 701 700 699 697 695 692 688 685 683 681 681 680 679 680 679 677 676 676 678 680 681 681 680 679 678 679 677 674 675 678 681 683 684 684 685 687 689 692 694 695 696 696 698 699 699 702 707 710 711 713
780 779 777 775 774 771 770 768 765 762 759 756 754 751 748 746 744 742 740 737 732 729 726 723 719 717 715 713 710 708 703 698 697 696 695 694 694 693 692 689 686 682 679 676 674 673 672 671 671 671 670 669 670 671 673 674 674 673 673 673 672 669 667 670 674 675 676 677 678 679 681 683 685 688 690 691 692 691 691 692 696 699 701 703 707
778 776 774 772 771 769 767 766 763 760 757 754 751 749 746 743 740 738 735 732 728 724 721 718 714 710 709 707 704 702 699 694 691 691 690 688 687 687 686 683 679 675 672 670 667 665 664 663 662 662 663 662 663 664 665 666 666 666 666 666 665 661 660 665 668 669 669 670 672 673 674 676 679 682 683 685 686 686 686 688 689 690 692 697 701
775 773 771 769 767 766 764 763 760 757 755 752 748 745 743 741 738 734 731 728 724 720 717 714 711 705 702 701 698 695 693 690 687 685 685 683 681 680 679 676 673 670 666 663 661 658 656 655 654 654 655 655 656 656 657 658 659 659 659 658 656 654 657 661 662 663 665 666 667 668 669 670 673 675 676 678 679 680 680 682 683 684 686 690 693
772 770 767 765 763 762 760 759 756 753 751 748 745 740 739 738 735 731 728 724 720 716 713 711 707 700 696 695 692 689 687 687 684 680 679 678 675 674 672 668 666 665 661 657 653 650 647 646 645 646 647 648 649 649 650 650 652 652 651 650 650 650 653 656 657 658 660 661 662 663 663 665 666 668 669 671 673 675 676 678 679 680 682 685 687
769 766 764 762 759 757 756 754 752 750 747 745 742 737 735 733 731 728 725 721 716 712 709 706 702 696 691 688 687 684 683 682 680 676 674 672 670 667 664 662 660 659 655 650 646 642 639 638 637 638 639 640 641 642 642 643 644 644 644 644 645 646 649 651 652 653 655 656 657 658 657 658 660 661 663 664 667 670 673 675 677 678 680 683 685
767 764 761 758 755 753 751 750 748 745 743 741 738 734 731 729 726 724 721 718 713 708 704 702 698 692 687 682 680 680 678 676 675 673 670 668 664 661 658 655 653 651 647 642 638 635 632 630 629 630 631 632 633 634 635 635 636 637 637 638 640 642 644 645 646 647 649 651 652 652 651 652 653 654 657 660 663 667 669 673 676 678 679 680 681
764 761 758 755 753 750 747 745 744 741 740 738 734 731 728 725 722 720 717 714 710 705 701 698 694 689 684 679 675 674 673 672 670 669 667 664 659 656 652 649 646 643 639 634 631 627 624 623 623 623 624 625 626 627 627 628 629 630 630 632 634 636 638 639 640 641 643 644 645 645 646 647 648 650 653 657 660 663 665 668 673 676 678 679 680
761 758 755 752 750 747 743 741 740 738 736 734 731 728 725 722 719 716 714 710 706 702 697 694 690 685 680 676 672 670 669 668 666 665 663 660 655 652 648 643 640 636 631 627 623 620 618 617 616 616 617 618 619 619 620 620 621 623 624 626 628 630 632 633 634 635 635 636 638 640 642 644 646 648 651 654 656 658 660 663 667 671 674 676 678
758 755 752 749 746 744 741 738 736 734 732 730 728 725 722 720 716 713 710 706 702 698 694 690 687 682 676 672 668 665 664 663 662 660 658 654 650 647 643 638 634 630 625 620 616 614 612 611 610 610 610 611 612 612 613 614 615 616 618 619 621 622 624 626 627 628 629 630 632 635 638 641 643 644 646 648 651 654 657 660 663 667 671 674 677
756 753 750 747 744 741 739 736 733 730 728 726 724 721 719 716 713 709 707 703 698 694 690 685 682 678 672 668 664 659 657 657 656 654 651 647 644 641 638 633 630 626 622 617 613 610 607 606 605 604 604 604 605 606 606 607 608 609 611 612 614 616 618 620 621 622 623 625 627 631 634 637 638 639 641 644 647 651 654 657 660 664 668 672 675
754 750 747 744 741 738 736 733 730 727 724 721 720 718 715 713 709 704 701 699 695 690 685 680 676 672 668 663 660 654 649 648 648 646 643 640 637 634 632 629 625 621 617 614 611 608 604 601 599 598 598 599 599 599 600 600 601 602 604 606 608 609 612 614 615 616 617 620 622 625 628 632 634 636 638 641 644 648 651 655 658 661 666 669 673
751 748 745 742 739 736 733 730 727 724 721 717 715 712 710 709 706 701 696 693 691 688 682 676 672 668 663 658 656 651 645 641 641 639 636 633 631 628 625 623 620 616 613 610 608 605 601 597 594 592 592 593 593 593 594 594 594 595 597 599 601 603 605 607 609 611 613 615 617 619 622 626 630 633 636 638 642 645 649 653 656 659 662 666 671
748 745 742 739 736 733 730 727 724 721 718 715 711 707 703 702 700 698 694 689 686 683 678 673 669 666 660 654 650 647 643 638 636 633 630 628 625 622 619 617 614 611 609 607 604 600 596 593 589 587 587 588 588 589 589 590 590 590 592 594 596 598 600 602 604 606 608 610 612 615 617 621 625 629 632 635 639 643 647 651 655 657 660 663 667
747 743 740 737 733 730 728 724 722 718 715 712 709 705 700 695 692 690 689 686 682 677 673 669 664 661 657 652 647 642 639 635 632 629 626 623 620 617 614 611 608 606 605 603 599 595 593 591 587 584 582 582 583 586 586 587 587 588 589 591 592 593 595 597 599 602 604 606 608 611 613 616 621 625 629 633 636 641 645 649 652 655 659 662 664
746 741 738 734 731 728 725 722 719 716 713 709 706 702 698 693 687 682 680 679 677 673 668 664 660 656 653 649 644 639 635 631 627 624 620 617 614 611 608 605 603 601 599 597 593 590 589 588 585 582 580 578 579 582 584 584 584 585 586 588 588 589 591 593 596 599 601 603 605 608 610 614 618 622 626 630 633 637 641 645 649 653 656 659 662
743 739 736 732 729 725 722 720 717 714 711 708 704 700 696 692 687 681 675 671 669 665 661 658 654 652 648 644 640 636 631 626 622 619 615 611 608 605 602 599 597 595 593 591 588 586 586 585 583 581 579 576 575 577 579 581 582 583 584 584 585 586 588 590 593 595 598 600 603 605 608 611 615 618 623 627 630 634 638 641 645 649 652 655 659
740 736 733 730 727 723 720 718 715 712 708 705 701 698 694 689 686 681 676 670 665 660 656 651 648 645 643 640 636 632 627 623 619 615 611 607 604 600 597 594 590 588 586 585 583 582 581 580 579 578 577 575 573 572 575 578 580 580 580 581 582 583 584 586 589 592 594 597 600 602 605 608 611 614 618 621 626 630 634 638 642 645 648 652 655
737 733 730 727 725 721 718 715 712 709 706 702 699 695 691 687 683 679 674 670 665 660 654 649 644 640 637 634 632 628 624 619 615 611 607 603 600 597 594 590 584 581 578 577 577 575 575 574 574 574 574 573 571 570 571 574 576 577 577 578 579 580 581 583 586 589 592 594 597 600 602 605 608 611 614 618 622 626 630 634 638 642 645 649 652
735 731 727 725 722 719 715 712 709 706 703 700 696 692 688 684 680 676 672 667 663 658 652 647 642 638 632 628 626 624 620 615 611 607 603 599 596 594 591 586 580 575 572 570 570 569 568 568 569 569 570 569 568 567 568 570 572 573 573 574 575 576 578 580 582 585 588 591 594 597 600 602 605 609 612 616 621 625 629 633 636 640 643 647 650
732 729 726 723 720 717 714 710 707 704 701 697 693 690 686 681 677 673 669 665 660 656 651 645 641 638 632 626 623 620 616 611 607 602 598 595 592 590 586 582 577 572 568 566 564 563 562 563 563 564 565 564 564 564 565 566 568 569 570 571 573 574 575 578 580 583 586 589 592 595 598 601 604 608 611 614 619 623 627 631 634 638 642 645 648
729 726 723 721 718 716 713 709 706 702 699 695 691 687 683 679 675 670 666 662 658 653 649 644 640 636 632 627 622 618 614 609 604 599 595 591 588 586 583 579 575 571 567 563 560 558 557 557 557 558 559 558 559 560 562 563 564 566 567 569 570 572 574 576 578 581 584 587 591 594 597 600 603 607 610 613 617 621 625 629 633 636 639 643 647
727 724 720 718 716 714 711 708 705 701 697 693 689 685 681 677 673 669 664 660 656 651 647 643 639 634 631 627 622 618 613 608 604 600 595 591 587 584 581 578 575 571 567 563 559 555 553 552 552 552 553 554 555 557 559 560 562 563 564 566 567 569 571 574 576 579 583 586 589 593 596 599 603 607 610 613 617 620 624 628 632 634 637 641 645
726 723 719 716 714 712 709 706 703 699 696 693 688 684 681 676 672 668 664 659 655 651 646 642 638 634 630 627 623 618 614 609 605 601 598 594 590 586 582 579 576 572 569 565 560 556 553 551 550 550 551 553 554 555 556 558 560 561 562 564 566 568 570 573 576 579 582 585 589 592 595 599 602 605 609 613 617 621 624 628 631 634 637 641 644
725 722 718 715 713 711 708 705 701 698 695 691 687 684 680 676 672 668 664 660 656 651 647 642 638 634 630 627 623 619 615 611 607 604 600 597 593 590 585 582 578 574 571 567 563 559 556 554 553 552 553 554 554 555 556 557 559 560 562 564 566 568 570 573 576 579 582 585 589 592 595 599 602 605 609 613 617 621 624 627 630 633 636 640 644
724 721 718 715 712 710 707 704 700 697 694 691 687 684 680 676 673 669 664 660 656 652 648 643 639 634 630 627 624 620 617 613 609 605 602 599 596 592 588 584 580 576 573 569 565 562 560 558 557 557 556 557 557 557 558 559 559 561 563 565 567 569 571 574 576 579 582 586 589 593 596 600 603 606 610 613 617 621 624 628 630 632 635 638 642
723 720 717 714 711 709 706 703 700 697 693 690 687 684 680 677 673 668 664 660 657 653 649 646 641 637 632 628 625 621 618 615 611 607 604 601 597 594 590 587 583 579 575 571 568 566 563 561 560 560 560 560 560 560 561 561 562 563 564 566 568 570 572 574 576 579 581 585 589 593 597 600 603 607 610 613 616 620 624 627 630 632 635 638 642
721 718 716 712 709 707 704 701 698 696 693 690 686 683 680 677 673 669 665 661 657 654 651 647 643 639 635 631 627 624 620 617 614 610 606 603 600 596 593 589 586 582 578 575 572 569 567 565 564 563 563 563 564 564 564 565 566 567 568 569 570 572 573 576 578 580 583 585 589 593 597 600 604 607 610 614 617 620 623 626 629 632 635 639 642
720 717 715 712 708 705 702 699 697 695 692 690 686 683 679 676 673 670 667 663 659 656 652 649 645 641 637 633 630 626 623 619 616 612 609 606 602 599 595 592 589 585 582 579 576 573 571 570 568 568 568 567 567 567 568 568 569 570 571 573 574 575 577 579 580 582 585 587 590 593 597 601 605 608 611 615 618 621 624 627 630 632 635 639 642
719 716 714 711 708 705 702 699 697 695 692 690 687 683 680 677 674 671 668 664 661 658 654 650 647 643 639 636 632 628 625 622 618 615 612 608 605 602 598 595 592 588 585 582 580 577 576 575 574 573 572 571 571 571 571 572 573 574 575 576 577 578 580 582 583 586 588 590 592 595 598 601 605 609 612 616 619 621 624 628 631 634 636 639 642
717 715 712 709 707 704 701 699 697 695 692 689 687 684 681 678 675 672 668 665 662 659 656 652 649 645 641 638 635 631 628 625 621 618 615 611 608 605 602 598 596 593 589 587 585 583 581 580 579 578 577 576 575 575 575 575 576 577 578 579 581 582 583 585 587 589 591 593 596 598 600 603 606 610 613 616 619 622 625 629 632 635 638 640 643
716 713 711 708 706 704 701 699 697 695 692 690 687 684 682 679 676 673 670 667 664 661 658 654 651 648 644 641 637 634 631 628 624 621 618 615 612 609 606 603 600 597 594 592 590 588 587 586 584 583 582 581 580 580 580 580 581 581 582 583 585 586 587 588 590 592 595 597 599 602 604 606 609 612 615 618 621 624 627 630 634 636 639 642 644
715 712 710 707 705 703 701 699 697 695 693 691 688 685 683 680 677 674 671 668 665 663 660 657 654 651 647 644 641 637 634 631 628 625 622 619 617 614 611 608 605 603 600 598 596 594 593 592 590 589 588 586 586 585 585 585 586 586 587 588 589 590 591 593 594 596 599 601 603 605 607 610 613 616 618 621 624 626 629 632 635 638 641 643 646
713 711 709 706 705 703 701 699 697 695 693 691 689 686 684 681 678 675 673 670 667 665 662 659 656 654 650 648 645 641 638 636 633 630 627 624 621 619 616 613 611 609 607 605 603 601 599 598 596 595 594 593 592 591 591 591 592 592 592 593 594 595 596 598 599 601 603 605 607 609 611 613 616 619 621 624 627 629 632 634 637 640 642 645 647